• In Moldova, Republic
  • List of Countries
  • For 7 days
  • Water Temperature
  • Satellite Maps
  • Weather Map
  • Weather Widgets
  • user-avatar
    Login

    Hourly Weather Adelaide

    Today, 17 December, Sunday

    Time Temperature Precipitation Wind Pressure Humidity
    00:00 +19°C° 0 mm 4 mps 757 mmHg 70%
    01:00 +19°C° 0 mm 4 mps 756 mmHg 70%
    02:00 +19°C° 0 mm 4 mps 756 mmHg 71%
    03:00 +18°C° 0 mm 2 mps 755 mmHg 71%
    04:00 +19°C° 0 mm 2 mps 755 mmHg 67%
    05:00 +20°C° 0 mm 3 mps 756 mmHg 63%
    06:00 +21°C° 0 mm 3 mps 756 mmHg 59%
    07:00 +25°C° 0 mm 3 mps 756 mmHg 50%
    08:00 +27°C° 0 mm 3 mps 755 mmHg 42%
    09:00 +29°C° 0 mm 3 mps 756 mmHg 37%
    10:00 +31°C° 0 mm 3 mps 756 mmHg 33%
    11:00 +34°C° 0 mm 2 mps 755 mmHg 28%
    12:00 +36°C° 0 mm 2 mps 755 mmHg 23%
    13:00 +36°C° 0 mm 2 mps 754 mmHg 22%
    14:00 +37°C° 0 mm 3 mps 754 mmHg 21%
    15:00 +37°C° 0 mm 3 mps 754 mmHg 20%
    16:00 +36°C° 0 mm 3 mps 753 mmHg 23%
    17:00 +34°C° 0 mm 3 mps 753 mmHg 26%
    18:00 +33°C° 0 mm 4 mps 753 mmHg 29%
    19:00 +33°C° 0 mm 4 mps 753 mmHg 29%
    20:00 +32°C° 0 mm 4 mps 753 mmHg 29%
    21:00 +32°C° 0 mm 4 mps 753 mmHg 28%
    22:00 +32°C° 0 mm 4 mps 752 mmHg 27%
    23:00 +32°C° 0 mm 4 mps 752 mmHg 26%

    Tomorrow, 18 December, Monday

    Time Temperature Precipitation Wind Pressure Humidity
    00:00 +32°C° 0 mm 4 mps 752 mmHg 25%
    01:00 +30°C° 0.1 mm 4 mps 752 mmHg 27%
    02:00 +30°C° 0.1 mm 4 mps 751 mmHg 28%
    03:00 +29°C° 0.1 mm 4 mps 751 mmHg 29%
    04:00 +30°C° 0 mm 5 mps 751 mmHg 28%
    05:00 +30°C° 0 mm 6 mps 751 mmHg 27%
    06:00 +30°C° 0 mm 6 mps 751 mmHg 26%
    07:00 +33°C° 0 mm 7 mps 751 mmHg 23%
    08:00 +35°C° 0 mm 7 mps 751 mmHg 19%
    09:00 +38°C° 0 mm 8 mps 750 mmHg 16%
    10:00 +40°C° 0 mm 8 mps 750 mmHg 15%
    11:00 +43°C° 0 mm 8 mps 749 mmHg 14%
    12:00 +44°C° 0 mm 7 mps 748 mmHg 13%
    13:00 +45°C° 0 mm 7 mps 747 mmHg 13%
    14:00 +46°C° 0 mm 7 mps 746 mmHg 12%
    15:00 +46°C° 0 mm 7 mps 744 mmHg 12%
    16:00 +45°C° 0 mm 7 mps 744 mmHg 12%
    17:00 +45°C° 0 mm 8 mps 743 mmHg 13%
    18:00 +44°C° 0 mm 8 mps 743 mmHg 13%
    19:00 +40°C° 0.2 mm 8 mps 743 mmHg 22%
    20:00 +36°C° 0.2 mm 7 mps 744 mmHg 31%
    21:00 +33°C° 0.2 mm 7 mps 744 mmHg 40%
    22:00 +32°C° 0.3 mm 7 mps 745 mmHg 50%
    23:00 +29°C° 0.3 mm 7 mps 745 mmHg 60%

    Day after tomorrow, 19 December, Tuesday

    Time Temperature Precipitation Wind Pressure Humidity
    00:00 +27°C° 0.3 mm 7 mps 746 mmHg 70%
    01:00 +24°C° 0.7 mm 6 mps 746 mmHg 72%
    02:00 +23°C° 0.7 mm 4 mps 746 mmHg 73%
    03:00 +22°C° 0.7 mm 3 mps 746 mmHg 74%
    04:00 +22°C° 0.3 mm 3 mps 747 mmHg 72%
    05:00 +22°C° 0.3 mm 4 mps 747 mmHg 69%
    06:00 +23°C° 0.3 mm 4 mps 747 mmHg 66%
    07:00 +25°C° 0 mm 5 mps 747 mmHg 56%
    08:00 +27°C° 0 mm 6 mps 748 mmHg 46%
    09:00 +28°C° 0 mm 7 mps 748 mmHg 36%
    10:00 +29°C° 0 mm 7 mps 748 mmHg 33%
    11:00 +29°C° 0 mm 8 mps 748 mmHg 30%
    12:00 +31°C° 0 mm 8 mps 748 mmHg 27%
    13:00 +31°C° 0 mm 8 mps 748 mmHg 27%
    14:00 +31°C° 0 mm 8 mps 748 mmHg 28%
    15:00 +29°C° 0 mm 8 mps 747 mmHg 28%
    16:00 +28°C° 0 mm 8 mps 748 mmHg 34%
    17:00 +27°C° 0 mm 8 mps 748 mmHg 39%
    18:00 +24°C° 0 mm 7 mps 749 mmHg 45%
    19:00 +23°C° 0 mm 7 mps 750 mmHg 50%
    20:00 +22°C° 0 mm 7 mps 750 mmHg 54%
    21:00 +21°C° 0 mm 6 mps 751 mmHg 59%
    22:00 +21°C° 0 mm 6 mps 751 mmHg 62%
    23:00 +20°C° 0 mm 6 mps 751 mmHg 65%

    20 December, Wednesday

    Time Temperature Precipitation Wind Pressure Humidity
    00:00 +20°C° 0 mm 6 mps 751 mmHg 67%
    01:00 +19°C° 0 mm 6 mps 751 mmHg 69%
    02:00 +19°C° 0 mm 5 mps 752 mmHg 70%
    03:00 +19°C° 0 mm 5 mps 752 mmHg 72%
    04:00 +19°C° 0.1 mm 5 mps 752 mmHg 70%
    05:00 +19°C° 0.1 mm 6 mps 753 mmHg 69%
    06:00 +19°C° 0.1 mm 6 mps 754 mmHg 68%
    07:00 +20°C° 0.1 mm 6 mps 755 mmHg 64%
    08:00 +21°C° 0.1 mm 6 mps 756 mmHg 60%
    09:00 +22°C° 0.1 mm 6 mps 756 mmHg 56%
    10:00 +22°C° 0 mm 6 mps 757 mmHg 53%
    11:00 +22°C° 0 mm 6 mps 757 mmHg 50%
    12:00 +22°C° 0 mm 6 mps 758 mmHg 47%
    13:00 +22°C° 0 mm 6 mps 758 mmHg 46%
    14:00 +22°C° 0 mm 6 mps 758 mmHg 44%
    15:00 +22°C° 0 mm 6 mps 758 mmHg 43%
    16:00 +21°C° 0 mm 5 mps 759 mmHg 46%
    17:00 +21°C° 0 mm 5 mps 759 mmHg 48%
    18:00 +20°C° 0 mm 5 mps 760 mmHg 50%
    19:00 +19°C° 0 mm 4 mps 760 mmHg 54%
    20:00 +18°C° 0 mm 4 mps 761 mmHg 58%
    21:00 +18°C° 0 mm 3 mps 761 mmHg 62%
    22:00 +17°C° 0 mm 3 mps 761 mmHg 64%
    23:00 +17°C° 0 mm 2 mps 761 mmHg 67%

    21 December, Thursday

    Time Temperature Precipitation Wind Pressure Humidity
    00:00 +16°C° 0 mm 2 mps 761 mmHg 69%
    01:00 +16°C° 0 mm 2 mps 761 mmHg 71%
    02:00 +16°C° 0 mm 2 mps 761 mmHg 73%
    03:00 +16°C° 0 mm 2 mps 761 mmHg 75%
    04:00 +16°C° 0 mm 2 mps 761 mmHg 73%
    05:00 +17°C° 0 mm 2 mps 761 mmHg 71%
    06:00 +17°C° 0 mm 2 mps 762 mmHg 69%
    07:00 +19°C° 0 mm 2 mps 762 mmHg 62%
    08:00 +20°C° 0 mm 2 mps 762 mmHg 56%
    09:00 +23°C° 0 mm 2 mps 762 mmHg 49%
    10:00 +24°C° 0 mm 2 mps 762 mmHg 46%
    11:00 +25°C° 0 mm 3 mps 761 mmHg 43%
    12:00 +26°C° 0 mm 3 mps 761 mmHg 40%
    13:00 +26°C° 0 mm 3 mps 760 mmHg 39%
    14:00 +26°C° 0 mm 4 mps 760 mmHg 39%
    15:00 +27°C° 0 mm 4 mps 759 mmHg 38%
    16:00 +26°C° 0 mm 4 mps 759 mmHg 42%
    17:00 +25°C° 0 mm 4 mps 759 mmHg 45%
    18:00 +23°C° 0 mm 4 mps 759 mmHg 49%
    19:00 +21°C° 0 mm 4 mps 759 mmHg 55%
    20:00 +20°C° 0 mm 4 mps 760 mmHg 62%
    21:00 +19°C° 0 mm 4 mps 760 mmHg 68%
    22:00 +18°C° 0 mm 4 mps 759 mmHg 70%
    23:00 +18°C° 0 mm 3 mps 759 mmHg 73%

    22 December, Friday

    Time Temperature Precipitation Wind Pressure Humidity
    00:00 +17°C° 0 mm 3 mps 759 mmHg 75%
    01:00 +17°C° 0 mm 2 mps 758 mmHg 77%
    02:00 +16°C° 0 mm 2 mps 758 mmHg 78%
    03:00 +16°C° 0 mm 2 mps 758 mmHg 79%
    04:00 +17°C° 0 mm 2 mps 758 mmHg 76%
    05:00 +17°C° 0 mm 2 mps 758 mmHg 72%
    06:00 +18°C° 0 mm 2 mps 758 mmHg 69%
    07:00 +20°C° 0 mm 2 mps 758 mmHg 59%
    08:00 +23°C° 0 mm 2 mps 758 mmHg 48%
    09:00 +25°C° 0 mm 2 mps 758 mmHg 38%
    10:00 +27°C° 0 mm 2 mps 757 mmHg 33%
    11:00 +29°C° 0 mm 2 mps 756 mmHg 28%
    12:00 +31°C° 0 mm 3 mps 756 mmHg 23%
    13:00 +31°C° 0 mm 3 mps 755 mmHg 22%
    14:00 +31°C° 0 mm 3 mps 754 mmHg 21%
    15:00 +33°C° 0 mm 4 mps 754 mmHg 21%
    16:00 +32°C° 0 mm 4 mps 754 mmHg 23%
    17:00 +30°C° 0 mm 4 mps 754 mmHg 26%
    18:00 +29°C° 0 mm 4 mps 754 mmHg 28%
    19:00 +27°C° 0 mm 3 mps 754 mmHg 35%
    20:00 +25°C° 0 mm 3 mps 754 mmHg 43%
    21:00 +22°C° 0 mm 3 mps 754 mmHg 50%
    22:00 +22°C° 0 mm 3 mps 754 mmHg 49%
    23:00 +21°C° 0 mm 3 mps 753 mmHg 49%
    Show more